Location: Lewisville
(33.0462°N, 96.9942°W)
Time: 02:58:11
(UTC-06:00)

ISS - Pass Details

Date: 07 February 2020
Orbit: 417 x 422 km, 51.6° (Epoch: 07 December)

Event Time Altitude Azimuth Distance (km) Brightness Sun altitude
Rises 19:25:13 0° 301° (WNW) 2,429 1.0 -17.1°
Reaches altitude 10° 19:27:33 10° 289° (WNW) 1,560 0.1 -17.6°
Maximum altitude 19:30:32 26° 231° (SW) 912 -1.5 -18.2°
Drops below altitude 10° 19:33:30 10° 173° (S) 1,559 -0.9 -18.8°
Enters shadow 19:34:40 - 165° (SSE) 1,975 -0.4 -19.1°
